Regional Weather Roundup
Issued by NWS Memphis, TN

Home | Current Version | Previous Version | Text Only | Print | Product List | Glossary On
Versions: 1 2 3 4 5 6 7 8 9 10 11 12 13 14 15 16 17 18 19 20 21 22 23 24 25 26 27 28 29 30 31 32 33 34 35 36 37 38 39 40 41 42 43 44 45 46 47 48 49 50
000
ASUS44 KMEG 021910
RWRMEG
MEMPHIS CWA HOURLY WEATHER ROUNDUP
NATIONAL WEATHER SERVICE MEMPHIS TN
200 PM CDT WED SEP 02 2015

...WEST TENNESSEE...

CITY           SKY/WX    TMP DP  RH WIND       PRES   REMARKS
MEMPHIS INTL   PTSUNNY   89  68  49 S9        30.06F HX  93
NWS MEMPHIS      N/A     91 N/A N/A MISG        N/A
JACKSON        MOSUNNY   89  70  53 CALM      30.07F HX  94
LEXINGTON      PTSUNNY   90  66  45 CALM      30.06F HX  92
DYERSBURG      SUNNY     90  72  55 SE5       30.07F HX  96
UNION CITY     SUNNY     90  70  51 N7        30.06F HX  95
PARIS          SUNNY     90  66  45 E7        30.08F HX  92


...EASTERN ARKANSAS...

CITY           SKY/WX    TMP DP  RH WIND       PRES   REMARKS
JONESBORO      SUNNY     90  66  45 E6        30.06F HX  92
WEST MEMPHIS   PTSUNNY   90  68  48 CALM      30.05F HX  94
BATESVILLE     SUNNY     91  72  52 E8        30.06F HX  98
NEWPORT        MOSUNNY   92  71  50 VRB5      30.07F HX  98
WALNUT RIDGE   MOSUNNY   90  70  51 SW3       30.06F HX  95
BLYTHEVILLE    SUNNY     93  70  46 CALM      30.07F HX  99
SEARCY         MOSUNNY   94  70  45 VRB7      30.06F HX 100
STUTTGART      MOSUNNY   90  66  45 E9        30.06F HX  92
PINE BLUFF     PTSUNNY   92  69  47 VRB5      30.04F HX  97
MONTICELLO     MOSUNNY   91  72  53 VRB7      30.05F HX  98


...NORTH MISSISSIPPI...

CITY           SKY/WX    TMP DP  RH WIND       PRES   REMARKS
TUPELO         CLOUDY    85  70  60 NE3       30.07F
OXFORD         CLOUDY    82  68  61 NE5       30.10S
OLIVE BRANCH   PTSUNNY   88  72  58 SE5       30.07F HX  94
CLARKSDALE     PTSUNNY   84  73  70 SE3       30.08F HX  91
CORINTH        CLOUDY    86  68  54 CALM      30.07S
GREENWOOD      CLOUDY    87  70  56 CALM      30.06F HX  92
COLUMBUS       CLOUDY    87  71  59 N6        30.05F HX  92
STARKVILLE     FAIR      86  70  58 N5        30.07S HX  90
GOLDEN TRIANGL MOSUNNY   90  72  55 N7        30.05F HX  96


...SOUTHEAST MISSOURI...

CITY           SKY/WX    TMP DP  RH WIND       PRES   REMARKS
WEST PLAINS    MOSUNNY   87  64  46 VRB6      30.11F
POPLAR BLUFF   SUNNY     88  72  58 VRB6      30.06F HX  94
CAPE GIRARDEAU MOSUNNY   89  67  47 CALM      30.06F HX  92


...NORTHWEST ALABAMA...

CITY           SKY/WX    TMP DP  RH WIND       PRES   REMARKS
MUSCLE SHOALS  CLOUDY    86  71  60 CALM      30.08F HX  91


...MIDDLE TENNESSEE...

CITY           SKY/WX    TMP DP  RH WIND       PRES   REMARKS
NASHVILLE      PTSUNNY   91  64  40 E6        30.07F HX  92
CLARKSVILLE    MOSUNNY   91  64  40 VRB3      30.06F HX  92
COLUMBIA       MOSUNNY   91  70  49 SE6       30.06F HX  97


...WESTERN KENTUCKY...

CITY           SKY/WX    TMP DP  RH WIND       PRES   REMARKS
PADUCAH        SUNNY     93  67  42 E5        30.06F HX  96
FORT CAMPBELL  MOSUNNY   89  65  44 E3        30.06F HX  91


...CENTRAL ARKANSAS...

CITY           SKY/WX    TMP DP  RH WIND       PRES   REMARKS
LITTLE ROCK    MOSUNNY   92  65  40 S5        30.05F HX  94


SKY/WX REPORTED AS FAIR MEANS FEW OR NO CLOUDS BELOW
12 THOUSAND FEET.



USA.gov is the U.S. government's official web portal to all federal, state and local government web resources and services.